• In Portugal
  • List of Countries
  • For 7 days
  • Water Temperature
  • Satellite Maps
  • Weather Map
  • Weather Widgets
  • user-avatar
    Login

    Hourly Weather Hampi

    Today, 20 February, Tuesday

    Time Temperature Precipitation Wind Pressure Humidity
    00:00 +26°C° 0 mm 2 mps 715 mmHg 30%
    01:00 +26°C° 0 mm 3 mps 715 mmHg 34%
    02:00 +25°C° 0 mm 3 mps 715 mmHg 39%
    03:00 +24°C° 0 mm 3 mps 715 mmHg 44%
    04:00 +24°C° 0 mm 3 mps 715 mmHg 50%
    05:00 +22°C° 0 mm 3 mps 715 mmHg 55%
    06:00 +24°C° 0 mm 3 mps 715 mmHg 52%
    07:00 +25°C° 0 mm 3 mps 716 mmHg 49%
    08:00 +27°C° 0 mm 4 mps 716 mmHg 47%
    09:00 +29°C° 0 mm 4 mps 716 mmHg 39%
    10:00 +32°C° 0 mm 4 mps 716 mmHg 32%
    11:00 +34°C° 0 mm 4 mps 717 mmHg 25%
    12:00 +35°C° 0 mm 4 mps 716 mmHg 23%
    13:00 +35°C° 0 mm 4 mps 715 mmHg 20%
    14:00 +36°C° 0 mm 3 mps 714 mmHg 18%
    15:00 +36°C° 0 mm 3 mps 714 mmHg 18%
    16:00 +36°C° 0 mm 3 mps 714 mmHg 18%
    17:00 +36°C° 0 mm 3 mps 714 mmHg 18%
    18:00 +34°C° 0 mm 3 mps 714 mmHg 20%
    19:00 +33°C° 0 mm 3 mps 714 mmHg 22%
    20:00 +30°C° 0 mm 3 mps 714 mmHg 24%
    21:00 +29°C° 0 mm 3 mps 714 mmHg 25%
    22:00 +29°C° 0 mm 3 mps 714 mmHg 26%
    23:00 +28°C° 0 mm 3 mps 714 mmHg 28%

    Tomorrow, 21 February, Wednesday

    Time Temperature Precipitation Wind Pressure Humidity
    00:00 +27°C° 0 mm 3 mps 714 mmHg 33%
    01:00 +26°C° 0 mm 3 mps 714 mmHg 37%
    02:00 +26°C° 0 mm 3 mps 713 mmHg 42%
    03:00 +25°C° 0 mm 3 mps 713 mmHg 45%
    04:00 +25°C° 0 mm 3 mps 713 mmHg 48%
    05:00 +24°C° 0 mm 3 mps 713 mmHg 51%
    06:00 +25°C° 0 mm 3 mps 714 mmHg 48%
    07:00 +26°C° 0 mm 3 mps 715 mmHg 45%
    08:00 +27°C° 0 mm 4 mps 715 mmHg 42%
    09:00 +29°C° 0 mm 4 mps 716 mmHg 36%
    10:00 +32°C° 0 mm 4 mps 716 mmHg 30%
    11:00 +34°C° 0 mm 4 mps 716 mmHg 24%
    12:00 +35°C° 0 mm 4 mps 715 mmHg 22%
    13:00 +36°C° 0 mm 3 mps 714 mmHg 20%
    14:00 +36°C° 0 mm 3 mps 713 mmHg 19%
    15:00 +36°C° 0 mm 3 mps 713 mmHg 19%
    16:00 +36°C° 0 mm 3 mps 713 mmHg 19%
    17:00 +36°C° 0 mm 3 mps 713 mmHg 18%
    18:00 +35°C° 0 mm 3 mps 713 mmHg 20%
    19:00 +33°C° 0 mm 3 mps 714 mmHg 22%
    20:00 +31°C° 0 mm 3 mps 714 mmHg 23%
    21:00 +30°C° 0 mm 3 mps 714 mmHg 24%
    22:00 +30°C° 0 mm 3 mps 714 mmHg 25%
    23:00 +29°C° 0 mm 3 mps 714 mmHg 26%

    Day after tomorrow, 22 February, Thursday

    Time Temperature Precipitation Wind Pressure Humidity
    00:00 +28°C° 0 mm 3 mps 714 mmHg 29%
    01:00 +27°C° 0 mm 3 mps 713 mmHg 33%
    02:00 +26°C° 0 mm 3 mps 713 mmHg 36%
    03:00 +26°C° 0 mm 3 mps 713 mmHg 39%
    04:00 +25°C° 0 mm 3 mps 713 mmHg 41%
    05:00 +25°C° 0 mm 2 mps 713 mmHg 44%
    06:00 +26°C° 0 mm 3 mps 714 mmHg 42%
    07:00 +27°C° 0 mm 3 mps 714 mmHg 40%
    08:00 +28°C° 0 mm 3 mps 715 mmHg 38%
    09:00 +30°C° 0 mm 3 mps 715 mmHg 34%
    10:00 +31°C° 0 mm 3 mps 715 mmHg 29%
    11:00 +34°C° 0 mm 3 mps 715 mmHg 24%
    12:00 +35°C° 0 mm 3 mps 714 mmHg 22%
    13:00 +36°C° 0 mm 3 mps 713 mmHg 21%
    14:00 +37°C° 0 mm 4 mps 713 mmHg 19%
    15:00 +37°C° 0 mm 4 mps 713 mmHg 19%
    16:00 +36°C° 0 mm 4 mps 712 mmHg 19%
    17:00 +36°C° 0 mm 4 mps 712 mmHg 19%
    18:00 +35°C° 0 mm 4 mps 713 mmHg 20%
    19:00 +34°C° 0 mm 3 mps 713 mmHg 21%
    20:00 +33°C° 0 mm 3 mps 714 mmHg 23%
    21:00 +31°C° 0 mm 3 mps 714 mmHg 24%
    22:00 +30°C° 0 mm 4 mps 714 mmHg 25%
    23:00 +29°C° 0 mm 4 mps 714 mmHg 26%

    23 February, Friday

    Time Temperature Precipitation Wind Pressure Humidity
    00:00 +28°C° 0 mm 3 mps 714 mmHg 29%
    01:00 +27°C° 0 mm 3 mps 713 mmHg 32%
    02:00 +27°C° 0 mm 3 mps 713 mmHg 35%
    03:00 +26°C° 0 mm 3 mps 713 mmHg 37%
    04:00 +25°C° 0 mm 2 mps 713 mmHg 38%
    05:00 +25°C° 0 mm 2 mps 713 mmHg 40%
    06:00 +26°C° 0 mm 3 mps 714 mmHg 38%
    07:00 +27°C° 0 mm 3 mps 715 mmHg 36%
    08:00 +28°C° 0 mm 4 mps 715 mmHg 33%
    09:00 +30°C° 0 mm 4 mps 716 mmHg 29%
    10:00 +33°C° 0 mm 4 mps 716 mmHg 25%
    11:00 +35°C° 0 mm 5 mps 716 mmHg 21%
    12:00 +36°C° 0 mm 5 mps 715 mmHg 19%
    13:00 +37°C° 0 mm 5 mps 714 mmHg 17%
    14:00 +38°C° 0 mm 6 mps 713 mmHg 16%
    15:00 +38°C° 0 mm 6 mps 713 mmHg 16%
    16:00 +36°C° 0 mm 6 mps 713 mmHg 16%
    17:00 +36°C° 0 mm 6 mps 713 mmHg 16%
    18:00 +35°C° 0 mm 5 mps 713 mmHg 17%
    19:00 +33°C° 0 mm 4 mps 714 mmHg 19%
    20:00 +32°C° 0 mm 4 mps 714 mmHg 21%
    21:00 +30°C° 0 mm 4 mps 715 mmHg 24%
    22:00 +29°C° 0 mm 5 mps 715 mmHg 28%
    23:00 +28°C° 0 mm 5 mps 715 mmHg 31%

    24 February, Saturday

    Time Temperature Precipitation Wind Pressure Humidity
    00:00 +28°C° 0 mm 5 mps 715 mmHg 33%
    01:00 +27°C° 0 mm 5 mps 714 mmHg 35%
    02:00 +26°C° 0 mm 4 mps 714 mmHg 36%
    03:00 +26°C° 0 mm 4 mps 714 mmHg 36%
    04:00 +25°C° 0 mm 3 mps 714 mmHg 36%
    05:00 +25°C° 0 mm 3 mps 714 mmHg 35%
    06:00 +26°C° 0 mm 4 mps 715 mmHg 32%
    07:00 +27°C° 0 mm 4 mps 716 mmHg 28%
    08:00 +28°C° 0 mm 5 mps 717 mmHg 24%
    09:00 +30°C° 0 mm 6 mps 717 mmHg 21%
    10:00 +33°C° 0 mm 6 mps 717 mmHg 17%
    11:00 +35°C° 0 mm 7 mps 717 mmHg 13%
    12:00 +36°C° 0 mm 7 mps 716 mmHg 13%
    13:00 +36°C° 0 mm 7 mps 715 mmHg 13%
    14:00 +38°C° 0 mm 7 mps 715 mmHg 13%
    15:00 +36°C° 0 mm 7 mps 715 mmHg 14%
    16:00 +36°C° 0 mm 7 mps 714 mmHg 15%
    17:00 +35°C° 0 mm 6 mps 714 mmHg 16%
    18:00 +34°C° 0 mm 6 mps 715 mmHg 19%
    19:00 +32°C° 0 mm 5 mps 715 mmHg 21%
    20:00 +30°C° 0 mm 4 mps 716 mmHg 24%
    21:00 +29°C° 0 mm 4 mps 716 mmHg 26%
    22:00 +29°C° 0 mm 4 mps 716 mmHg 28%
    23:00 +28°C° 0 mm 5 mps 716 mmHg 30%

    25 February, Sunday

    Time Temperature Precipitation Wind Pressure Humidity
    00:00 +27°C° 0 mm 4 mps 715 mmHg 34%
    01:00 +26°C° 0 mm 4 mps 715 mmHg 37%
    02:00 +25°C° 0 mm 3 mps 715 mmHg 41%
    03:00 +24°C° 0 mm 3 mps 715 mmHg 44%
    04:00 +22°C° 0 mm 3 mps 715 mmHg 47%
    05:00 +22°C° 0 mm 3 mps 715 mmHg 49%
    06:00 +22°C° 0 mm 3 mps 715 mmHg 47%
    07:00 +23°C° 0 mm 4 mps 716 mmHg 44%
    08:00 +25°C° 0 mm 4 mps 717 mmHg 42%
    09:00 +28°C° 0 mm 5 mps 717 mmHg 33%
    10:00 +30°C° 0 mm 5 mps 717 mmHg 24%
    11:00 +34°C° 0 mm 6 mps 717 mmHg 15%
    12:00 +35°C° 0 mm 6 mps 717 mmHg 13%
    13:00 +36°C° 0 mm 5 mps 716 mmHg 12%
    14:00 +37°C° 0 mm 5 mps 715 mmHg 10%
    15:00 +37°C° 0 mm 5 mps 715 mmHg 11%
    16:00 +36°C° 0 mm 5 mps 715 mmHg 11%
    17:00 +36°C° 0 mm 5 mps 715 mmHg 12%
    18:00 +34°C° 0 mm 4 mps 715 mmHg 15%
    19:00 +32°C° 0 mm 4 mps 715 mmHg 18%
    20:00 +30°C° 0 mm 3 mps 716 mmHg 21%
    21:00 +29°C° 0 mm 3 mps 716 mmHg 24%
    22:00 +29°C° 0 mm 4 mps 716 mmHg 28%
    23:00 +28°C° 0 mm 4 mps 716 mmHg 31%
    Show more